Year,Month,Day,Hour,Minute,Value (Times are PST for temperature in C)
2018,08,05,00,00,16.00
2018,08,05,00,01,16.00
2018,08,05,00,02,15.90
2018,08,05,00,03,15.90
2018,08,05,00,04,15.90
2018,08,05,00,05,15.90
2018,08,05,00,06,15.90
2018,08,05,00,07,15.90
2018,08,05,00,08,15.90
2018,08,05,00,09,15.90
2018,08,05,00,10,15.80
2018,08,05,00,11,15.80
2018,08,05,00,12,15.80
2018,08,05,00,13,15.80
2018,08,05,00,14,15.80
2018,08,05,00,15,15.80
2018,08,05,00,16,15.80
2018,08,05,00,17,15.80
2018,08,05,00,18,15.70
2018,08,05,00,19,15.70
2018,08,05,00,20,15.70
2018,08,05,00,21,15.70
2018,08,05,00,22,15.70
2018,08,05,00,23,15.70
2018,08,05,00,24,15.70
2018,08,05,00,25,15.60
2018,08,05,00,26,15.60
2018,08,05,00,27,15.60
2018,08,05,00,28,15.60
2018,08,05,00,29,15.60
2018,08,05,00,30,15.60
2018,08,05,00,31,15.60
2018,08,05,00,32,15.50
2018,08,05,00,33,15.50
2018,08,05,00,34,15.50
2018,08,05,00,35,15.50
2018,08,05,00,36,15.40
2018,08,05,00,37,15.40
2018,08,05,00,38,15.40
2018,08,05,00,39,15.40
2018,08,05,00,40,15.40
2018,08,05,00,41,15.40
2018,08,05,00,42,15.30
2018,08,05,00,43,15.30
2018,08,05,00,44,15.30
2018,08,05,00,45,15.30
2018,08,05,00,46,15.30
2018,08,05,00,47,15.30
2018,08,05,00,48,15.30
2018,08,05,00,49,15.30
2018,08,05,00,50,15.30
2018,08,05,00,51,15.30
2018,08,05,00,52,15.30
2018,08,05,00,53,15.30
2018,08,05,00,54,15.30
2018,08,05,00,55,15.30
2018,08,05,00,56,15.30
2018,08,05,00,57,15.30
2018,08,05,00,58,15.30
2018,08,05,00,59,15.30
2018,08,05,01,00,15.30
2018,08,05,01,01,15.30
2018,08,05,01,02,15.20
2018,08,05,01,03,15.20
2018,08,05,01,04,15.20
2018,08,05,01,05,15.20
2018,08,05,01,06,15.20
2018,08,05,01,07,15.20
2018,08,05,01,08,15.20
2018,08,05,01,09,15.20
2018,08,05,01,10,15.20
2018,08,05,01,11,15.20
2018,08,05,01,12,15.10
2018,08,05,01,13,15.10
2018,08,05,01,14,15.10
2018,08,05,01,15,15.10
2018,08,05,01,16,15.10
2018,08,05,01,17,15.10
2018,08,05,01,18,15.00
2018,08,05,01,19,15.00
2018,08,05,01,20,15.00
2018,08,05,01,21,15.10
2018,08,05,01,22,15.10
2018,08,05,01,23,15.10
2018,08,05,01,24,15.10
2018,08,05,01,25,15.10
2018,08,05,01,26,15.10
2018,08,05,01,27,15.10
2018,08,05,01,28,15.10
2018,08,05,01,29,15.10
2018,08,05,01,30,15.10
2018,08,05,01,31,15.10
2018,08,05,01,32,15.10
2018,08,05,01,33,15.00
2018,08,05,01,34,15.00
2018,08,05,01,35,15.00
2018,08,05,01,36,14.90
2018,08,05,01,37,14.90
2018,08,05,01,38,14.90
2018,08,05,01,39,14.90
2018,08,05,01,40,14.80
2018,08,05,01,41,14.80
2018,08,05,01,42,14.80
2018,08,05,01,43,14.80
2018,08,05,01,44,14.70
2018,08,05,01,45,14.70
2018,08,05,01,46,14.70
2018,08,05,01,47,14.70
2018,08,05,01,48,14.60
2018,08,05,01,49,14.60
2018,08,05,01,50,14.60
2018,08,05,01,51,14.60
2018,08,05,01,52,14.60
2018,08,05,01,53,14.60
2018,08,05,01,54,14.60
2018,08,05,01,55,14.50
2018,08,05,01,56,14.50
2018,08,05,01,57,14.50
2018,08,05,01,58,14.50
2018,08,05,01,59,14.50
2018,08,05,02,00,14.50
2018,08,05,02,01,14.50
2018,08,05,02,02,14.40
2018,08,05,02,03,14.40
2018,08,05,02,04,14.40
2018,08,05,02,05,14.40
2018,08,05,02,06,14.40
2018,08,05,02,07,14.30
2018,08,05,02,08,14.30
2018,08,05,02,09,14.30
2018,08,05,02,10,14.30
2018,08,05,02,11,14.30
2018,08,05,02,12,14.30
2018,08,05,02,13,14.30
2018,08,05,02,14,14.20
2018,08,05,02,15,14.20
2018,08,05,02,16,14.20
2018,08,05,02,17,14.30
2018,08,05,02,18,14.30
2018,08,05,02,19,14.30
2018,08,05,02,20,14.30
2018,08,05,02,21,14.30
2018,08,05,02,22,14.30
2018,08,05,02,23,14.30
2018,08,05,02,24,14.30
2018,08,05,02,25,14.30
2018,08,05,02,26,14.40
2018,08,05,02,27,14.40
2018,08,05,02,28,14.40
2018,08,05,02,29,14.40
2018,08,05,02,30,14.40
2018,08,05,02,31,14.40
2018,08,05,02,32,14.40
2018,08,05,02,33,14.40
2018,08,05,02,34,14.40
2018,08,05,02,35,14.40
2018,08,05,02,36,14.40
2018,08,05,02,37,14.40
2018,08,05,02,38,14.40
2018,08,05,02,39,14.40
2018,08,05,02,40,14.40
2018,08,05,02,41,14.40
2018,08,05,02,42,14.40
2018,08,05,02,43,14.40
2018,08,05,02,44,14.40
2018,08,05,02,45,14.30
2018,08,05,02,46,14.30
2018,08,05,02,47,14.30
2018,08,05,02,48,14.30
2018,08,05,02,49,14.30
2018,08,05,02,50,14.30
2018,08,05,02,51,14.40
2018,08,05,02,52,14.40
2018,08,05,02,53,14.40
2018,08,05,02,54,14.40
2018,08,05,02,55,14.40
2018,08,05,02,56,14.40
2018,08,05,02,57,14.40
2018,08,05,02,58,14.30
2018,08,05,02,59,14.30
2018,08,05,03,00,14.30
2018,08,05,03,01,14.30
2018,08,05,03,02,14.30
2018,08,05,03,03,14.30
2018,08,05,03,04,14.30
2018,08,05,03,05,14.20
2018,08,05,03,06,14.20
2018,08,05,03,07,14.20
2018,08,05,03,08,14.20
2018,08,05,03,09,14.20
2018,08,05,03,10,14.20
2018,08,05,03,11,14.20
2018,08,05,03,12,14.20
2018,08,05,03,13,14.20
2018,08,05,03,14,14.20
2018,08,05,03,15,14.20
2018,08,05,03,16,14.20
2018,08,05,03,17,14.20
2018,08,05,03,18,14.20
2018,08,05,03,19,14.20
2018,08,05,03,20,14.20
2018,08,05,03,21,14.20
2018,08,05,03,22,14.20
2018,08,05,03,23,14.20
2018,08,05,03,24,14.20
2018,08,05,03,25,14.10
2018,08,05,03,26,14.10
2018,08,05,03,27,14.10
2018,08,05,03,28,14.10
2018,08,05,03,29,14.10
2018,08,05,03,30,14.10
2018,08,05,03,31,14.00
2018,08,05,03,32,14.00
2018,08,05,03,33,14.00
2018,08,05,03,34,14.00
2018,08,05,03,35,14.00
2018,08,05,03,36,14.00
2018,08,05,03,37,13.90
2018,08,05,03,38,13.90
2018,08,05,03,39,13.90
2018,08,05,03,40,13.90
2018,08,05,03,41,13.90
2018,08,05,03,42,13.90
2018,08,05,03,43,13.90
2018,08,05,03,44,13.90
2018,08,05,03,45,13.90
2018,08,05,03,46,13.90
2018,08,05,03,47,13.90
2018,08,05,03,48,13.90
2018,08,05,03,49,13.90
2018,08,05,03,50,13.90
2018,08,05,03,51,13.90
2018,08,05,03,52,13.90
2018,08,05,03,53,13.90
2018,08,05,03,54,13.90
2018,08,05,03,55,13.90
2018,08,05,03,56,13.90
2018,08,05,03,57,13.90
2018,08,05,03,58,13.90
2018,08,05,03,59,13.90
2018,08,05,04,00,13.90
2018,08,05,04,01,13.90
2018,08,05,04,02,13.90
2018,08,05,04,03,13.90
2018,08,05,04,04,13.90
2018,08,05,04,05,13.90
2018,08,05,04,06,13.90
2018,08,05,04,07,13.90
2018,08,05,04,08,13.90
2018,08,05,04,09,13.90
2018,08,05,04,10,13.90
2018,08,05,04,11,13.80
2018,08,05,04,12,13.80
2018,08,05,04,13,13.80
2018,08,05,04,14,13.80
2018,08,05,04,15,13.90
2018,08,05,04,16,13.90
2018,08,05,04,17,13.90
2018,08,05,04,18,13.90
2018,08,05,04,19,13.90
2018,08,05,04,20,13.90
2018,08,05,04,21,13.90
2018,08,05,04,22,13.90
2018,08,05,04,23,13.90
2018,08,05,04,24,13.90
2018,08,05,04,25,13.90
2018,08,05,04,26,13.90
2018,08,05,04,27,13.90
2018,08,05,04,28,13.90
2018,08,05,04,29,13.90
2018,08,05,04,30,13.90
2018,08,05,04,31,13.90
2018,08,05,04,32,13.90
2018,08,05,04,33,13.90
2018,08,05,04,34,13.90
2018,08,05,04,35,13.90
2018,08,05,04,36,13.90
2018,08,05,04,37,13.90
2018,08,05,04,38,13.90
2018,08,05,04,39,13.90
2018,08,05,04,40,13.90
2018,08,05,04,41,13.90
2018,08,05,04,42,13.90
2018,08,05,04,43,13.80
2018,08,05,04,44,13.80
2018,08,05,04,45,13.80
2018,08,05,04,46,13.80
2018,08,05,04,47,13.80
2018,08,05,04,48,13.70
2018,08,05,04,49,13.70
2018,08,05,04,50,13.70
2018,08,05,04,51,13.70
2018,08,05,04,52,13.60
2018,08,05,04,53,13.60
2018,08,05,04,54,13.60
2018,08,05,04,55,13.60
2018,08,05,04,56,13.50
2018,08,05,04,57,13.50
2018,08,05,04,58,13.50
2018,08,05,04,59,13.40
2018,08,05,05,00,13.40
2018,08,05,05,01,13.40
2018,08,05,05,02,13.40
2018,08,05,05,03,13.40
2018,08,05,05,04,13.40
2018,08,05,05,05,13.40
2018,08,05,05,06,13.40
2018,08,05,05,07,13.40
2018,08,05,05,08,13.40
2018,08,05,05,09,13.40
2018,08,05,05,10,13.40
2018,08,05,05,11,13.40
2018,08,05,05,12,13.50
2018,08,05,05,13,13.50
2018,08,05,05,14,13.50
2018,08,05,05,15,13.50
2018,08,05,05,16,13.50
2018,08,05,05,17,13.50
2018,08,05,05,18,13.50
2018,08,05,05,19,13.50
2018,08,05,05,20,13.50
2018,08,05,05,21,13.50
2018,08,05,05,22,13.50
2018,08,05,05,23,13.50
2018,08,05,05,24,13.50
2018,08,05,05,25,13.50
2018,08,05,05,26,13.50
2018,08,05,05,27,13.50
2018,08,05,05,28,13.50
2018,08,05,05,29,13.50
2018,08,05,05,30,13.50
2018,08,05,05,31,13.40
2018,08,05,05,32,13.40
2018,08,05,05,33,13.40
2018,08,05,05,34,13.40
2018,08,05,05,35,13.50
2018,08,05,05,36,13.50
2018,08,05,05,37,13.50
2018,08,05,05,38,13.50
2018,08,05,05,39,13.50
2018,08,05,05,40,13.50
2018,08,05,05,41,13.50
2018,08,05,05,42,13.50
2018,08,05,05,43,13.50
2018,08,05,05,44,13.50
2018,08,05,05,45,13.50
2018,08,05,05,46,13.40
2018,08,05,05,47,13.40
2018,08,05,05,48,13.40
2018,08,05,05,49,13.40
2018,08,05,05,50,13.40
2018,08,05,05,51,13.40
2018,08,05,05,52,13.40
2018,08,05,05,53,13.30
2018,08,05,05,54,13.30
2018,08,05,05,55,13.30
2018,08,05,05,56,13.30
2018,08,05,05,57,13.30
2018,08,05,05,58,13.30
2018,08,05,05,59,13.30
2018,08,05,06,00,13.30
2018,08,05,06,01,13.30
2018,08,05,06,02,13.30
2018,08,05,06,03,13.30
2018,08,05,06,04,13.30
2018,08,05,06,05,13.30
2018,08,05,06,06,13.30
2018,08,05,06,07,13.30
2018,08,05,06,08,13.30
2018,08,05,06,09,13.30
2018,08,05,06,10,13.30
2018,08,05,06,11,13.30
2018,08,05,06,12,13.30
2018,08,05,06,13,13.30
2018,08,05,06,14,13.30
2018,08,05,06,15,13.30
2018,08,05,06,16,13.30
2018,08,05,06,17,13.30
2018,08,05,06,18,13.30
2018,08,05,06,19,13.30
2018,08,05,06,20,13.40
2018,08,05,06,21,13.40
2018,08,05,06,22,13.40
2018,08,05,06,23,13.40
2018,08,05,06,24,13.40
2018,08,05,06,25,13.40
2018,08,05,06,26,13.50
2018,08,05,06,27,13.50
2018,08,05,06,28,13.60
2018,08,05,06,29,13.60
2018,08,05,06,30,13.60
2018,08,05,06,31,13.70
2018,08,05,06,32,13.70
2018,08,05,06,33,13.70
2018,08,05,06,34,13.70
2018,08,05,06,35,13.70
2018,08,05,06,36,13.70
2018,08,05,06,37,13.80
2018,08,05,06,38,13.80
2018,08,05,06,39,13.80
2018,08,05,06,40,13.80
2018,08,05,06,41,13.80
2018,08,05,06,42,13.90
2018,08,05,06,43,13.90
2018,08,05,06,44,13.90
2018,08,05,06,45,13.90
2018,08,05,06,46,14.00
2018,08,05,06,47,14.00
2018,08,05,06,48,14.10
2018,08,05,06,49,14.10
2018,08,05,06,50,14.10
2018,08,05,06,51,14.10
2018,08,05,06,52,14.20
2018,08,05,06,53,14.20
2018,08,05,06,54,14.20
2018,08,05,06,55,14.30
2018,08,05,06,56,14.30
2018,08,05,06,57,14.30
2018,08,05,06,58,14.40
2018,08,05,06,59,14.40
2018,08,05,07,00,14.40
2018,08,05,07,01,14.50
2018,08,05,07,02,14.50
2018,08,05,07,03,14.60
2018,08,05,07,04,14.70
2018,08,05,07,05,14.70
2018,08,05,07,06,14.80
2018,08,05,07,07,14.80
2018,08,05,07,08,14.90
2018,08,05,07,09,15.00
2018,08,05,07,10,15.00
2018,08,05,07,11,15.10
2018,08,05,07,12,15.10
2018,08,05,07,13,15.20
2018,08,05,07,14,15.20
2018,08,05,07,15,15.30
2018,08,05,07,16,15.30
2018,08,05,07,17,15.40
2018,08,05,07,18,15.40
2018,08,05,07,19,15.40
2018,08,05,07,20,15.50
2018,08,05,07,21,15.50
2018,08,05,07,22,15.60
2018,08,05,07,23,15.60
2018,08,05,07,24,15.70
2018,08,05,07,25,15.70
2018,08,05,07,26,15.70
2018,08,05,07,27,15.80
2018,08,05,07,28,15.80
2018,08,05,07,29,15.80
2018,08,05,07,30,15.80
2018,08,05,07,31,15.90
2018,08,05,07,32,15.90
2018,08,05,07,33,16.00
2018,08,05,07,34,16.00
2018,08,05,07,35,16.10
2018,08,05,07,36,16.10
2018,08,05,07,37,16.10
2018,08,05,07,38,16.20
2018,08,05,07,39,16.20
2018,08,05,07,40,16.20
2018,08,05,07,41,16.30
2018,08,05,07,42,16.30
2018,08,05,07,43,16.30
2018,08,05,07,44,16.40
2018,08,05,07,45,16.40
2018,08,05,07,46,16.40
2018,08,05,07,47,16.40
2018,08,05,07,48,16.50
2018,08,05,07,49,16.60
2018,08,05,07,50,16.60
2018,08,05,07,51,16.60
2018,08,05,07,52,16.70
2018,08,05,07,53,16.70
2018,08,05,07,54,16.80
2018,08,05,07,55,16.80
2018,08,05,07,56,16.90
2018,08,05,07,57,16.90
2018,08,05,07,58,17.00
2018,08,05,07,59,17.00
2018,08,05,08,00,17.10
2018,08,05,08,01,17.10
2018,08,05,08,02,17.20
2018,08,05,08,03,17.20
2018,08,05,08,04,17.20
2018,08,05,08,05,17.30
2018,08,05,08,06,17.30
2018,08,05,08,07,17.30
2018,08,05,08,08,17.40
2018,08,05,08,09,17.40
2018,08,05,08,10,17.50
2018,08,05,08,11,17.50
2018,08,05,08,12,17.60
2018,08,05,08,13,17.60
2018,08,05,08,14,17.70
2018,08,05,08,15,17.70
2018,08,05,08,16,17.80
2018,08,05,08,17,17.90
2018,08,05,08,18,17.90
2018,08,05,08,19,18.00
2018,08,05,08,20,18.10
2018,08,05,08,21,18.20
2018,08,05,08,22,18.20
2018,08,05,08,23,18.30
2018,08,05,08,24,18.40
2018,08,05,08,25,18.50
2018,08,05,08,26,18.60
2018,08,05,08,27,18.70
2018,08,05,08,28,18.90
2018,08,05,08,29,19.00
2018,08,05,08,30,19.20
2018,08,05,08,31,19.30
2018,08,05,08,32,19.40
2018,08,05,08,33,19.50
2018,08,05,08,34,19.60
2018,08,05,08,35,19.70
2018,08,05,08,36,19.70
2018,08,05,08,37,19.70
2018,08,05,08,38,19.80
2018,08,05,08,39,19.80
2018,08,05,08,40,19.90
2018,08,05,08,41,19.90
2018,08,05,08,42,19.90
2018,08,05,08,43,20.00
2018,08,05,08,44,20.00
2018,08,05,08,45,20.10
2018,08,05,08,46,20.10
2018,08,05,08,47,20.20
2018,08,05,08,48,20.20
2018,08,05,08,49,20.30
2018,08,05,08,50,20.40
2018,08,05,08,51,20.50
2018,08,05,08,52,20.50
2018,08,05,08,53,20.60
2018,08,05,08,54,20.70
2018,08,05,08,55,20.80
2018,08,05,08,56,20.80
2018,08,05,08,57,20.90
2018,08,05,08,58,21.00
2018,08,05,08,59,21.10
2018,08,05,09,00,21.20
2018,08,05,09,01,21.30
2018,08,05,09,02,21.30
2018,08,05,09,03,21.40
2018,08,05,09,04,21.50
2018,08,05,09,05,21.50
2018,08,05,09,06,21.60
2018,08,05,09,07,21.70
2018,08,05,09,08,21.70
2018,08,05,09,09,21.80
2018,08,05,09,10,21.80
2018,08,05,09,11,21.80
2018,08,05,09,12,21.80
2018,08,05,09,13,21.80
2018,08,05,09,14,21.80
2018,08,05,09,15,21.90
2018,08,05,09,16,21.90
2018,08,05,09,17,21.90
2018,08,05,09,18,21.90
2018,08,05,09,19,21.90
2018,08,05,09,20,21.90
2018,08,05,09,21,21.90
2018,08,05,09,22,21.90
2018,08,05,09,23,21.90
2018,08,05,09,24,21.90
2018,08,05,09,25,21.90
2018,08,05,09,26,21.90
2018,08,05,09,27,21.90
2018,08,05,09,28,21.90
2018,08,05,09,29,21.90
2018,08,05,09,30,21.90
2018,08,05,09,31,21.90
2018,08,05,09,32,22.00
2018,08,05,09,33,22.00
2018,08,05,09,34,22.00
2018,08,05,09,35,22.00
2018,08,05,09,36,22.10
2018,08,05,09,37,22.10
2018,08,05,09,38,22.10
2018,08,05,09,39,22.20
2018,08,05,09,40,22.20
2018,08,05,09,41,22.30
2018,08,05,09,42,22.30
2018,08,05,09,43,22.40
2018,08,05,09,44,22.40
2018,08,05,09,45,22.40
2018,08,05,09,46,22.40
2018,08,05,09,47,22.40
2018,08,05,09,48,22.40
2018,08,05,09,49,22.50
2018,08,05,09,50,22.40
2018,08,05,09,51,22.40
2018,08,05,09,52,22.40
2018,08,05,09,53,22.40
2018,08,05,09,54,22.40
2018,08,05,09,55,22.40
2018,08,05,09,56,22.40
2018,08,05,09,57,22.40
2018,08,05,09,58,22.40
2018,08,05,09,59,22.40
2018,08,05,10,00,22.40
2018,08,05,10,01,22.30
2018,08,05,10,02,22.40
2018,08,05,10,03,22.40
2018,08,05,10,04,22.50
2018,08,05,10,05,22.60
2018,08,05,10,06,22.70
2018,08,05,10,07,22.70
2018,08,05,10,08,22.70
2018,08,05,10,09,22.60
2018,08,05,10,10,22.60
2018,08,05,10,11,22.60
2018,08,05,10,12,22.60
2018,08,05,10,13,22.50
2018,08,05,10,14,22.50
2018,08,05,10,15,22.40
2018,08,05,10,16,22.40
2018,08,05,10,17,22.40
2018,08,05,10,18,22.40
2018,08,05,10,19,22.40
2018,08,05,10,20,22.50
2018,08,05,10,21,22.50
2018,08,05,10,22,22.60
2018,08,05,10,23,22.60
2018,08,05,10,24,22.60
2018,08,05,10,25,22.60
2018,08,05,10,26,22.60
2018,08,05,10,27,22.50
2018,08,05,10,28,22.50
2018,08,05,10,29,22.50
2018,08,05,10,30,22.50
2018,08,05,10,31,22.50
2018,08,05,10,32,22.50
2018,08,05,10,33,22.60
2018,08,05,10,34,22.60
2018,08,05,10,35,22.70
2018,08,05,10,36,22.70
2018,08,05,10,37,22.70
2018,08,05,10,38,22.80
2018,08,05,10,39,22.70
2018,08,05,10,40,22.70
2018,08,05,10,41,22.80
2018,08,05,10,42,22.80
2018,08,05,10,43,22.80
2018,08,05,10,44,22.80
2018,08,05,10,45,22.80
2018,08,05,10,46,22.80
2018,08,05,10,47,22.70
2018,08,05,10,48,22.70
2018,08,05,10,49,22.70
2018,08,05,10,50,22.70
2018,08,05,10,51,22.80
2018,08,05,10,52,22.80
2018,08,05,10,53,22.90
2018,08,05,10,54,22.90
2018,08,05,10,55,23.00
2018,08,05,10,56,23.10
2018,08,05,10,57,23.10
2018,08,05,10,58,23.10
2018,08,05,10,59,23.10
2018,08,05,11,00,23.10
2018,08,05,11,01,23.10
2018,08,05,11,02,23.10
2018,08,05,11,03,23.00
2018,08,05,11,04,23.00
2018,08,05,11,05,23.00
2018,08,05,11,06,23.00
2018,08,05,11,07,23.10
2018,08,05,11,08,23.10
2018,08,05,11,09,23.10
2018,08,05,11,10,23.10
2018,08,05,11,11,23.10
2018,08,05,11,12,23.10
2018,08,05,11,13,23.10
2018,08,05,11,14,23.20
2018,08,05,11,15,23.20
2018,08,05,11,16,23.30
2018,08,05,11,17,23.30
2018,08,05,11,18,23.40
2018,08,05,11,19,23.40
2018,08,05,11,20,23.40
2018,08,05,11,21,23.40
2018,08,05,11,22,23.40
2018,08,05,11,23,23.40
2018,08,05,11,24,23.40
2018,08,05,11,25,23.50
2018,08,05,11,26,23.50
2018,08,05,11,27,23.50
2018,08,05,11,28,23.50
2018,08,05,11,29,23.50
2018,08,05,11,30,23.50
2018,08,05,11,31,23.40
2018,08,05,11,32,23.40
2018,08,05,11,33,23.50
2018,08,05,11,34,23.50
2018,08,05,11,35,23.60
2018,08,05,11,36,23.60
2018,08,05,11,37,23.60
2018,08,05,11,38,23.60
2018,08,05,11,39,23.70
2018,08,05,11,40,23.70
2018,08,05,11,41,23.70
2018,08,05,11,42,23.70
2018,08,05,11,43,23.80
2018,08,05,11,44,23.90
2018,08,05,11,45,23.90
2018,08,05,11,46,23.90
2018,08,05,11,47,23.90
2018,08,05,11,48,23.90
2018,08,05,11,49,23.90
2018,08,05,11,50,23.90
2018,08,05,11,51,23.90
2018,08,05,11,52,24.00
2018,08,05,11,53,24.10
2018,08,05,11,54,24.10
2018,08,05,11,55,24.20
2018,08,05,11,56,24.20
2018,08,05,11,57,24.20
2018,08,05,11,58,24.30
2018,08,05,11,59,24.30
2018,08,05,12,00,24.30
2018,08,05,12,01,24.30
2018,08,05,12,02,24.30
2018,08,05,12,03,24.30
2018,08,05,12,04,24.30
2018,08,05,12,05,24.30
2018,08,05,12,06,24.30
2018,08,05,12,07,24.20
2018,08,05,12,08,24.20
2018,08,05,12,09,24.20
2018,08,05,12,10,24.10
2018,08,05,12,11,24.10
2018,08,05,12,12,24.00
2018,08,05,12,13,24.00
2018,08,05,12,14,24.00
2018,08,05,12,15,23.90
2018,08,05,12,16,23.90
2018,08,05,12,17,24.00
2018,08,05,12,18,24.10
2018,08,05,12,19,24.10
2018,08,05,12,20,24.10
2018,08,05,12,21,24.10
2018,08,05,12,22,24.10
2018,08,05,12,23,24.10
2018,08,05,12,24,24.10
2018,08,05,12,25,24.10
2018,08,05,12,26,24.10
2018,08,05,12,27,24.20
2018,08,05,12,28,24.30
2018,08,05,12,29,24.30
2018,08,05,12,30,24.30
2018,08,05,12,31,24.30
2018,08,05,12,32,24.20
2018,08,05,12,33,24.10
2018,08,05,12,34,24.10
2018,08,05,12,35,24.00
2018,08,05,12,36,24.00
2018,08,05,12,37,24.10
2018,08,05,12,38,24.20
2018,08,05,12,39,24.30
2018,08,05,12,40,24.30
2018,08,05,12,41,24.30
2018,08,05,12,42,24.30
2018,08,05,12,43,24.30
2018,08,05,12,44,24.30
2018,08,05,12,45,24.30
2018,08,05,12,46,24.40
2018,08,05,12,47,24.40
2018,08,05,12,48,24.40
2018,08,05,12,49,24.50
2018,08,05,12,50,24.50
2018,08,05,12,51,24.50
2018,08,05,12,52,24.60
2018,08,05,12,53,24.60
2018,08,05,12,54,24.70
2018,08,05,12,55,24.70
2018,08,05,12,56,24.70
2018,08,05,12,57,24.70
2018,08,05,12,58,24.70
2018,08,05,12,59,24.70
2018,08,05,13,00,24.70
2018,08,05,13,01,24.70
2018,08,05,13,02,24.80
2018,08,05,13,03,24.80
2018,08,05,13,04,24.80
2018,08,05,13,05,24.90
2018,08,05,13,06,24.90
2018,08,05,13,07,24.90
2018,08,05,13,08,24.80
2018,08,05,13,09,24.80
2018,08,05,13,10,24.80
2018,08,05,13,11,24.80
2018,08,05,13,12,24.80
2018,08,05,13,13,24.80
2018,08,05,13,14,24.80
2018,08,05,13,15,24.80
2018,08,05,13,16,24.80
2018,08,05,13,17,24.80
2018,08,05,13,18,24.80
2018,08,05,13,19,24.90
2018,08,05,13,20,24.90
2018,08,05,13,21,25.00
2018,08,05,13,22,25.10
2018,08,05,13,23,25.20
2018,08,05,13,24,25.30
2018,08,05,13,25,25.40
2018,08,05,13,26,25.40
2018,08,05,13,27,25.40
2018,08,05,13,28,25.50
2018,08,05,13,29,25.50
2018,08,05,13,30,25.40
2018,08,05,13,31,25.40
2018,08,05,13,32,25.40
2018,08,05,13,33,25.30
2018,08,05,13,34,25.30
2018,08,05,13,35,25.30
2018,08,05,13,36,25.30
2018,08,05,13,37,25.30
2018,08,05,13,38,25.30
2018,08,05,13,39,25.20
2018,08,05,13,40,25.20
2018,08,05,13,41,25.20
2018,08,05,13,42,25.20
2018,08,05,13,43,25.20
2018,08,05,13,44,25.20
2018,08,05,13,45,25.20
2018,08,05,13,46,25.20
2018,08,05,13,47,25.20
2018,08,05,13,48,25.20
2018,08,05,13,49,25.20
2018,08,05,13,50,25.20
2018,08,05,13,51,25.20
2018,08,05,13,52,25.20
2018,08,05,13,53,25.20
2018,08,05,13,54,25.20
2018,08,05,13,55,25.30
2018,08,05,13,56,25.30
2018,08,05,13,57,25.30
2018,08,05,13,58,25.30
2018,08,05,13,59,25.40
2018,08,05,14,00,25.50
2018,08,05,14,01,25.50
2018,08,05,14,02,25.60
2018,08,05,14,03,25.60
2018,08,05,14,04,25.60
2018,08,05,14,05,25.70
2018,08,05,14,06,25.70
2018,08,05,14,07,25.70
2018,08,05,14,08,25.70
2018,08,05,14,09,25.70
2018,08,05,14,10,25.70
2018,08,05,14,11,25.70
2018,08,05,14,12,25.70
2018,08,05,14,13,25.80
2018,08,05,14,14,25.80
2018,08,05,14,15,25.80
2018,08,05,14,16,25.80
2018,08,05,14,17,25.80
2018,08,05,14,18,25.80
2018,08,05,14,19,25.80
2018,08,05,14,20,25.80
2018,08,05,14,21,25.90
2018,08,05,14,22,25.90
2018,08,05,14,23,25.90
2018,08,05,14,24,25.90
2018,08,05,14,25,26.00
2018,08,05,14,26,26.00
2018,08,05,14,27,26.10
2018,08,05,14,28,26.10
2018,08,05,14,29,26.10
2018,08,05,14,30,26.10
2018,08,05,14,31,26.20
2018,08,05,14,32,26.20
2018,08,05,14,33,26.30
2018,08,05,14,34,26.30
2018,08,05,14,35,26.30
2018,08,05,14,36,26.30
2018,08,05,14,37,26.30
2018,08,05,14,38,26.30
2018,08,05,14,39,26.30
2018,08,05,14,40,26.30
2018,08,05,14,41,26.20
2018,08,05,14,42,26.20
2018,08,05,14,43,26.20
2018,08,05,14,44,26.20
2018,08,05,14,45,26.20
2018,08,05,14,46,26.30
2018,08,05,14,47,26.30
2018,08,05,14,48,26.40
2018,08,05,14,49,26.40
2018,08,05,14,50,26.40
2018,08,05,14,51,26.50
2018,08,05,14,52,26.50
2018,08,05,14,53,26.60
2018,08,05,14,54,26.60
2018,08,05,14,55,26.70
2018,08,05,14,56,26.60
2018,08,05,14,57,26.60
2018,08,05,14,58,26.60
2018,08,05,14,59,26.70
2018,08,05,15,00,26.70
2018,08,05,15,01,26.70
2018,08,05,15,02,26.80
2018,08,05,15,03,26.80
2018,08,05,15,04,26.80
2018,08,05,15,05,26.90
2018,08,05,15,06,27.00
2018,08,05,15,07,27.00
2018,08,05,15,08,27.00
2018,08,05,15,09,27.10
2018,08,05,15,10,27.10
2018,08,05,15,11,27.20
2018,08,05,15,12,27.20
2018,08,05,15,13,27.20
2018,08,05,15,14,27.30
2018,08,05,15,15,27.30
2018,08,05,15,16,27.30
2018,08,05,15,17,27.30
2018,08,05,15,18,27.30
2018,08,05,15,19,27.30
2018,08,05,15,20,27.40
2018,08,05,15,21,27.40
2018,08,05,15,22,27.40
2018,08,05,15,23,27.40
2018,08,05,15,24,27.50
2018,08,05,15,25,27.50
2018,08,05,15,26,27.50
2018,08,05,15,27,27.50
2018,08,05,15,28,27.50
2018,08,05,15,29,27.50
2018,08,05,15,30,27.50
2018,08,05,15,31,27.50
2018,08,05,15,32,27.50
2018,08,05,15,33,27.50
2018,08,05,15,34,27.40
2018,08,05,15,35,27.40
2018,08,05,15,36,27.50
2018,08,05,15,37,27.50
2018,08,05,15,38,27.50
2018,08,05,15,39,27.40
2018,08,05,15,40,27.30
2018,08,05,15,41,27.20
2018,08,05,15,42,27.20
2018,08,05,15,43,27.20
2018,08,05,15,44,27.20
2018,08,05,15,45,27.20
2018,08,05,15,46,27.20
2018,08,05,15,47,27.30
2018,08,05,15,48,27.30
2018,08,05,15,49,27.30
2018,08,05,15,50,27.20
2018,08,05,15,51,27.10
2018,08,05,15,52,27.00
2018,08,05,15,53,27.00
2018,08,05,15,54,27.00
2018,08,05,15,55,27.00
2018,08,05,15,56,27.00
2018,08,05,15,57,27.00
2018,08,05,15,58,27.00
2018,08,05,15,59,27.00
2018,08,05,16,00,27.00
2018,08,05,16,01,27.00
2018,08,05,16,02,26.90
2018,08,05,16,03,26.90
2018,08,05,16,04,26.80
2018,08,05,16,05,26.80
2018,08,05,16,06,26.80
2018,08,05,16,07,26.80
2018,08,05,16,08,26.80
2018,08,05,16,09,26.80
2018,08,05,16,10,26.70
2018,08,05,16,11,26.70
2018,08,05,16,12,26.70
2018,08,05,16,13,26.70
2018,08,05,16,14,26.70
2018,08,05,16,15,26.70
2018,08,05,16,16,26.70
2018,08,05,16,17,26.70
2018,08,05,16,18,26.70
2018,08,05,16,19,26.70
2018,08,05,16,20,26.70
2018,08,05,16,21,26.70
2018,08,05,16,22,26.70
2018,08,05,16,23,26.70
2018,08,05,16,24,26.70
2018,08,05,16,25,26.80
2018,08,05,16,26,26.80
2018,08,05,16,27,26.80
2018,08,05,16,28,26.80
2018,08,05,16,29,26.80
2018,08,05,16,30,26.90
2018,08,05,16,31,26.90
2018,08,05,16,32,26.80
2018,08,05,16,33,26.80
2018,08,05,16,34,26.80
2018,08,05,16,35,26.70
2018,08,05,16,36,26.70
2018,08,05,16,37,26.70
2018,08,05,16,38,26.70
2018,08,05,16,39,26.70
2018,08,05,16,40,26.70
2018,08,05,16,41,26.80
2018,08,05,16,42,26.70
2018,08,05,16,43,26.70
2018,08,05,16,44,26.70
2018,08,05,16,45,26.70
2018,08,05,16,46,26.70
2018,08,05,16,47,26.80
2018,08,05,16,48,26.80
2018,08,05,16,49,26.80
2018,08,05,16,50,26.90
2018,08,05,16,51,26.90
2018,08,05,16,52,26.80
2018,08,05,16,53,26.80
2018,08,05,16,54,26.90
2018,08,05,16,55,26.90
2018,08,05,16,56,26.90
2018,08,05,16,57,27.00
2018,08,05,16,58,27.10
2018,08,05,16,59,27.10
2018,08,05,17,00,27.20
2018,08,05,17,01,27.20
2018,08,05,17,02,27.30
2018,08,05,17,03,27.30
2018,08,05,17,04,27.30
2018,08,05,17,05,27.40
2018,08,05,17,06,27.40
2018,08,05,17,07,27.50
2018,08,05,17,08,27.50
2018,08,05,17,09,27.60
2018,08,05,17,10,27.60
2018,08,05,17,11,27.70
2018,08,05,17,12,27.70
2018,08,05,17,13,27.70
2018,08,05,17,14,27.70
2018,08,05,17,15,27.70
2018,08,05,17,16,27.60
2018,08,05,17,17,27.50
2018,08,05,17,18,27.50
2018,08,05,17,19,27.40